SCP
0 0 0 0 0 0 0 0 0 0 0 0 0 0 0 0 0 0 0 0 0 0
0 0 0 0 0 0 0 0 0 0 0 0 0 0 0 0 0 0 0 0 0 0
0 0 0 0 0 0 0 0 0 0 0 0 0 0 0 0 0 0 0 0 0 0
0 0 0 0 0 0 0 0 0 0 0 0 0 0 0 0 0 0 0 0 0 0
0 0 0 0 0 0 0 0 0 0 0 0 0 0 0 0 0 0 0 0 0 0
0 0 0 0 0 0 0 0 0 0 0 0 0 0 0 0 0 0 0 0 0 0
0 0 0 0 0 0 0 0 0 0 0 0 0 0 0 0 0 0 0 0 0 0
0 0 0 0 0 0 0 0 0 0 0 0 0 0 0 0 0 0 0 0 0 0
0 0 0 0 0 0 0 0 0 0 0 0 0 0 0 0 0 0 0 0 0 0
0 0 0 0 0 0 0 0 0 0 0 0 0 0 0 0 0 0 0 0 0 0
0 0 0 0 0 0 0 0 0 0 0 0 0 0 0 0 0 0 0 0 0 0
0 0 0 0 0 0 0 0 0 0 0 0 0 0 0 0 0 0 0 0 0 0
-0 -0 -0 0 0 0 0 0 0 0 0 0 0 0 0 0 0 0 0 0 0 0
-0 -0 -0 -0 -0 0 0 0 0 0 0 0 0 0 0 0 0 0 0 0 0 0
Wind_Speed_500mb
41 62 77 82 90 87 84 82 81 82 87 89 91 91 88 96 92 87 89 89 88 85
18 26 47 67 70 72 69 66 65 63 71 81 85 88 89 92 92 86 83 86 87 86
13 6 17 33 45 52 51 52 50 51 56 64 72 79 85 88 87 83 84 81 82 83
22 9 3 16 27 35 39 41 39 41 45 48 55 64 73 81 81 82 82 81 79 83
36 22 5 7 17 27 33 34 33 34 35 38 43 49 55 63 72 79 82 81 83 82
50 42 32 16 2 13 22 29 32 32 32 32 35 40 45 51 57 66 74 78 80 79
62 54 45 33 21 8 6 17 27 32 32 31 33 36 40 45 49 54 61 70 74 77
71 66 54 41 35 25 13 4 12 22 30 33 33 34 38 42 45 49 53 59 66 72
68 69 68 63 49 36 29 18 9 7 17 24 30 37 35 34 39 43 47 50 55 61
66 70 67 64 61 56 47 36 32 20 6 10 19 29 33 34 34 34 36 40 44 52
58 65 67 66 62 59 58 53 45 38 29 15 5 18 27 31 31 32 30 32 36 42
53 50 51 57 64 63 57 52 51 44 35 28 23 10 15 20 22 23 25 26 30 35
52 49 48 47 45 46 51 54 47 41 39 36 30 23 12 4 11 19 23 25 27 29
50 49 48 46 44 43 37 35 40 46 37 33 33 29 25 16 4 6 17 21 25 30
Wind_Direction_500mb
236 232 238 237 240 245 247 249 247 244 240 237 233 234 236 237 237 233 231 234 234 231
253 224 219 237 242 249 254 256 255 253 247 240 236 236 236 239 238 234 233 235 233 234
6 283 216 218 227 242 252 254 254 252 249 243 240 239 239 238 238 234 234 234 234 234
28 36 224 219 223 233 240 247 255 254 249 246 242 242 242 243 242 239 237 235 233 233
31 35 56 194 216 224 230 236 240 247 250 248 247 246 247 246 244 240 238 235 233 232
35 36 39 36 6 226 230 231 231 236 244 248 252 253 252 251 249 246 243 240 237 234
38 35 33 33 35 33 245 235 233 234 235 240 249 254 255 255 253 249 245 243 240 236
40 40 40 35 35 33 32 355 253 240 239 239 240 247 252 253 254 253 250 246 242 238
32 36 38 39 38 38 40 33 11 285 248 242 242 241 241 246 253 254 253 249 245 239
25 26 30 36 37 40 41 39 38 35 357 262 249 244 243 244 241 244 249 250 247 242
19 17 17 19 27 35 36 38 38 36 37 39 333 257 249 248 250 244 238 241 242 241
10 14 16 13 11 14 21 30 33 35 35 32 23 351 276 259 251 248 245 240 238 237
357 1 5 5 9 11 7 7 15 27 28 31 34 28 3 300 252 245 239 237 238 239
344 348 350 353 355 356 359 3 358 358 8 22 25 34 40 40 43 232 246 249 246 237
Wind_Speed_850mb
41 62 77 82 90 87 84 82 81 82 87 89 91 91 88 96 92 87 89 89 88 85
18 26 47 67 70 72 69 66 65 63 71 81 85 88 89 92 92 86 83 86 87 86
13 6 17 33 45 52 51 52 50 51 56 64 72 79 85 88 87 83 84 81 82 83
22 9 3 16 27 35 39 41 39 41 45 48 55 64 73 81 81 82 82 81 79 83
36 22 5 7 17 27 33 34 33 34 35 38 43 49 55 63 72 79 82 81 83 82
50 42 32 16 2 13 22 29 32 32 32 32 35 40 45 51 57 66 74 78 80 79
62 54 45 33 21 8 6 17 27 32 32 31 33 36 40 45 49 54 61 70 74 77
71 66 54 41 35 25 13 4 12 22 30 33 33 34 38 42 45 49 53 59 66 72
68 69 68 63 49 36 29 18 9 7 17 24 30 37 35 34 39 43 47 50 55 61
66 70 67 64 61 56 47 36 32 20 6 10 19 29 33 34 34 34 36 40 44 52
58 65 67 66 62 59 58 53 45 38 29 15 5 18 27 31 31 32 30 32 36 42
53 50 51 57 64 63 57 52 51 44 35 28 23 10 15 20 22 23 25 26 30 35
52 49 48 47 45 46 51 54 47 41 39 36 30 23 12 4 11 19 23 25 27 29
50 49 48 46 44 43 37 35 40 46 37 33 33 29 25 16 4 6 17 21 25 30
Wind_Direction_850mb
236 232 238 237 240 245 247 249 247 244 240 237 233 234 236 237 237 233 231 234 234 231
253 224 219 237 242 249 254 256 255 253 247 240 236 236 236 239 238 234 233 235 233 234
6 283 216 218 227 242 252 254 254 252 249 243 240 239 239 238 238 234 234 234 234 234
28 36 224 219 223 233 240 247 255 254 249 246 242 242 242 243 242 239 237 235 233 233
31 35 56 194 216 224 230 236 240 247 250 248 247 246 247 246 244 240 238 235 233 232
35 36 39 36 6 226 230 231 231 236 244 248 252 253 252 251 249 246 243 240 237 234
38 35 33 33 35 33 245 235 233 234 235 240 249 254 255 255 253 249 245 243 240 236
40 40 40 35 35 33 32 355 253 240 239 239 240 247 252 253 254 253 250 246 242 238
32 36 38 39 38 38 40 33 11 285 248 242 242 241 241 246 253 254 253 249 245 239
25 26 30 36 37 40 41 39 38 35 357 262 249 244 243 244 241 244 249 250 247 242
19 17 17 19 27 35 36 38 38 36 37 39 333 257 249 248 250 244 238 241 242 241
10 14 16 13 11 14 21 30 33 35 35 32 23 351 276 259 251 248 245 240 238 237
357 1 5 5 9 11 7 7 15 27 28 31 34 28 3 300 252 245 239 237 238 239
344 348 350 353 355 356 359 3 358 358 8 22 25 34 40 40 43 232 246 249 246 237